Weather in Koshelevitsy

Russia / Pskov Oblast     58°29′40″N   29°24′29″E
temp.,
°C
wind,
m/s
gust,
m/s
humid.,
%
clouds,
%
prec.,
mm/h
press.,
hPa
HPBL,
m
23 april, fri
fri2300:00+5ssw3988100 0.6 1007367
03:00+4ssw3989100 0.6 1006345
06:00+3ssw388831 0.0 1006534
09:00+3ssw4779100 0.1 10071135
12:00+4s5870100 0.1 10071212
15:00+6s585597 0.1 10071556
18:00+7ssw476314 0.7 10071343
21:00+2s27825 0.9 1007150
24 april, sat
sat2400:00+1ssw379783 0.0 1008272
03:00+1sw3796100 0.1 1007576
06:000w369197 0.2 1008455
09:00+1sw3578100 0.2 1008704
12:00+3ssw3567100 0.0 10071100
15:00+5sw3566100 0.6 10071220
18:00+4wsw457394 0.7 1007869
21:00+1w3696100 0.8 1007463
25 april, sun
sun2500:00+2wsw368899 0.1 1007738
03:00+1sw2597100 0.3 1006326
06:000sw2595100 0.1 1006329
09:00+2w237989 0.2 1006622
12:00+5w236199 0.2 10051371
15:00+6w345897 0.9 10061314
18:00+5wnw456277 0.3 10061091
21:00+1wnw259087 0.6 1006134
26 april, mon
mon2600:000wsw2595100 0.0 1007125
03:00+1wsw3792100 0.1 1006352
06:00+1wsw3793100 0.1 1006415
09:00+3wsw3578100 0.1 1006897
12:00+4wsw4668100 0.1 10071140
15:00+5wsw4665100 0.3 10061202
18:00+4wsw3681100 0.3 1006796
21:00+2sw3797100 0.5 1006365
27 april, tue
tue2700:00+2sw2599100 0.6 1005365
03:00+2wnw13100100 1.3 1005214
06:00+1nnw26100100 0.8 1004303
09:00+2nnw3698100 1.3 1005446
12:00+2nnw3696100 0.1 1006492
15:00+4nnw3588100 0.3 1007696
18:00+3nw3690100 0.3 1007603
21:00+2nw369796 0.4 1008410